Location: Kuffner-Sternwarte
(48.2130°N, 16.2960°E)
Time: 16:36:01
(UTC+02:00)

COROT - Pass Details

Date: 09 May 2026
Orbit: 594 x 855 km, 90.1° (Epoch: 21 May)

Event Time Altitude Azimuth Distance (km) Brightness Sun altitude
Rises 01:40:24 0° 348° (NNW) 3,406 10.4 -23.6°
Reaches altitude 10° 01:43:40 10° 329° (NNW) 2,435 9.2 -23.4°
Maximum altitude 01:46:58 17° 292° (WNW) 1,967 8.2 -23.3°
Enters shadow 01:48:48 14° 268° (W) 2,087 8.1 -23.2°
